Regional Weather Roundup
Issued by NWS

Home | Current Version | Previous Version | Text Only | Print | Product List | Glossary On
Versions: 1 2 3 4 5 6 7 8 9 10 11 12 13 14 15 16 17 18 19 20 21 22 23 24 25 26 27 28 29 30 31 32 33 34 35 36 37 38 39 40 41 42 43 44 45 46 47 48 49 50
000
ASUS43 KMKX 210200
RWRWI

WISCONSIN REGIONAL WEATHER ROUNDUP
NATIONAL WEATHER SERVICE MILWAUKEE/SULLIVAN WI
900 PM CDT SAT SEP 20 2014

NOTE: "FAIR" INDICATES FEW OR NO CLOUDS BELOW 12,000 FEET WITH NO
SIGNIFICANT WEATHER AND/OR OBSTRUCTIONS TO VISIBILITY.

WIZ001-002-006>008-014>016-023>028-210300-
NORTHWEST WISCONSIN

CITY           SKY/WX    TMP DP  RH WIND       PRES   REMARKS
SUPERIOR ARPT  CLOUDY    55  54  94 W7        29.71R
ASHLAND        CLOUDY    59  52  77 W8G17     29.71R
HAYWARD        CLOUDY    55  54  96 CALM      29.74F
SIREN          MOCLDY    56  54  94 W7        29.76S
RICE LAKE      CLOUDY    56  54  92 W12       29.77R
LADYSMITH      RAIN      56  54  91 NW7       29.77R
EAU CLAIRE     CLOUDY    58  55  90 W6        29.76R
MENOMONIE      MOCLDY    59  57  92 W7        29.78R
NEW RICHMOND   PTCLDY    57  55  94 NW12      29.80R
OSCEOLA        PTCLDY    57  56  96 W8        29.82R
$$

WIZ003>005-009-010-017-018-210300-
NORTH CENTRAL WISCONSIN

CITY           SKY/WX    TMP DP  RH WIND       PRES   REMARKS
WOODRUFF       CLOUDY    57  52  82 CALM      29.72S
RHINELANDER    CLOUDY    60  52  74 W3        29.73R
EAGLE RIVER    CLOUDY    57  51  82 N3        29.72R
LAND O LAKES   MOCLDY    51  50  97 CALM      29.72S
PHILLIPS       CLOUDY    57  53  84 W13G26    29.75R
TOMAHAWK       CLOUDY    58  52  79 CALM      29.73R
MEDFORD        CLOUDY    58  55  88 W3        29.73R
MERRILL        CLOUDY    63  55  75 W5        29.72R
$$

WIZ029-030-035-036-043>047-210300-
CENTRAL WISCONSIN

CITY           SKY/WX    TMP DP  RH WIND       PRES   REMARKS
WAUSAU         CLOUDY    64  56  75 NW6       29.71R
MOSINEE        PTCLDY    63  57  82 W5        29.73R
MARSHFIELD     LGT RAIN  63  57  81 W7        29.72R
STEVENS POINT  CLOUDY    64  56  75 W3        29.72S
WAUPACA        CLOUDY    65  58  80 SW3       29.72R
WAUTOMA        NOT AVBL
WISC RAPIDS    CLOUDY    62  58  86 CALM      29.73R
CAMP DOUGLAS   CLOUDY    61  61 100 W6        29.74R
$$

WIZ011>013-019>022-031-037>040-048>050-210300-
NORTHEAST WISCONSIN

CITY           SKY/WX    TMP DP  RH WIND       PRES   REMARKS
ANTIGO         CLOUDY    62  55  78 W8        29.72R
STURGEON BAY   MOCLDY    63  61  94 S6        29.68R
GREEN BAY      PTCLDY    66  58  75 W7        29.69S
MANITOWOC      NOT AVBL
APPLETON       MOCLDY    64  57  77 W8        29.71S
CLINTONVILLE   MOCLDY    64  55  72 W3        29.70R
OSHKOSH        CLEAR     66  60  81 SW5       29.71S
$$

WIZ032>034-041-042-053>061-210300-
SOUTHWEST WISCONSIN

CITY           SKY/WX    TMP DP  RH WIND       PRES   REMARKS
LA CROSSE      LGT RAIN  63  61  93 S7        29.74S
SPARTA         RAIN      63  60  89 W16G22    29.79R
VIROQUA        CLOUDY    63  62  97 NW15G23   29.82R
BOSCOBEL       TSTM      65  62  90 NW14G20   29.79R
PRAIRIE DU CHI MOCLDY    66  59  77 NW17G33   29.76R
PLATTEVILLE    FAIR      65  61  85 S6        29.77S
$$

WIZ056-057-062-063-064-067-068-210300-
SOUTH CENTRAL WISCONSIN

CITY           SKY/WX    TMP DP  RH WIND       PRES   REMARKS
BARABOO/DELLS  PTCLDY    64  58  80 CALM      29.74S
LONE ROCK      NOT AVBL
WATERTOWN      CLEAR     62  61  97 CALM      29.74S
MADISON        PTCLDY    69  62  78 SW5       29.74S
MIDDLETON      FAIR      63  62  98 CALM      29.75S
MONROE         CLEAR     66  63  88 SW6       29.77S
JANESVILLE     CLEAR     68  64  88 SW7       29.76S
$$

WIZ051-052-058>065-066-070>072-210300-
SOUTHEAST WISCONSIN

CITY           SKY/WX    TMP DP  RH WIND       PRES   REMARKS
MILWAUKEE      TSTM      68  63  84 S12       29.74F
WAUKESHA       CLEAR     66  61  82 SW5       29.76S
MILWAUKEE/TIMM CLEAR     66  61  82 S6        29.75S
RACINE         PTCLDY    67  62  84 SW8       29.77F
BURLINGTON     CLEAR     63  61  94 S6        29.76F
KENOSHA        PTCLDY    67  63  87 SW9       29.77F
FOND DU LAC    CLEAR     65  61  87 SW6       29.72S
SHEBOYGAN      CLEAR     64  60  87 SW7       29.71F
WEST BEND      CLEAR     64  59  82 SW5       29.73S
JUNEAU         CLEAR     63  60  91 S6        29.75S
$$

LSZ147-162-210300-
LAKE SUPERIOR

STATION/POSITION TIME  TEMP    WIND        PRES    WAVE
                       AIR SEA DIR/SP/G            HT/PER
                 (UTC) (F)     (DEG/KT/KT) (MB)    (FT/S)
W MID LAKE BUOY  0050   51 47   10/  2/  4 1005.7R   1/ 4
DEVILS ISLAND    0100   55      30/  5/  6 1005.3F
PORT WING        0100   55     210/  4/  6 1005.4R
SAXON HARBOR     0100   56        CALM     1005.4S
$$

LMZ867-665-643>646-210300-
LAKE MICHIGAN

STATION/POSITION TIME  TEMP    WIND        PRES    WAVE
                       AIR SEA DIR/SP/G            HT/PER
                 (UTC) (F)     (DEG/KT/KT) (MB)    (FT/S)
N MID LAKE BUOY  0050   60 58  340/  6/  8 1004.2R   4/ 7
NORTHPORT PIER   0100   66     290/  6/  8 1004.4R
SISTER BAY       0127             CALM       N/A
KEWAUNEE LAKESHO 0100   69     220/  6/ 10 1004.3R
SHEBOYGAN LAKESH 0100   69 53  240/  8/ 10 1006.2R
PORT WASHINGTON  0140   69     250/  4/  6 1007.1S
ATWATER BUOY     0100   65     210/  8/  8 1008.4R
MILWAUKEE LAKESH 0100   72     230/  8/ 10   N/A
S MID LAKE BUOY  0050   65 63  210/ 12/ 14 1008.0R
KENOSHA   LAKESH 0100   70     210/  7/ 10 1007.8S
$$

TC  - TEMPERATURE IN CELSIUS
VSB - VISIBILITY IN STATUTE MILES
WCI - WIND CHILL INDEX
HX  - HEAT INDEX




USA.gov is the U.S. government's official web portal to all federal, state and local government web resources and services.